Wind_Speed
15 12 10 8 6 6 7 7 7 7 6 6 6 6 6 6 5 4 4 4 3 2 1 2 4 7 7 6 5 5 4 4 4 4 4 4 3 3 3 4 5 7
15 13 11 8 7 8 8 7 7 7 6 6 6 5 5 5 4 4 3 3 2 2 1 2 3 8 9 7 7 6 5 4 4 4 4 3 2 2 2 2 3 5
14 13 11 9 8 9 9 8 7 7 5 5 5 4 4 5 5 4 3 2 2 2 1 2 3 8 10 9 8 7 5 4 4 4 3 2 2 2 2 3 3 5
14 13 11 9 9 9 8 8 8 8 6 4 4 4 4 5 5 5 3 3 2 2 1 2 3 8 10 10 9 8 6 4 4 4 2 2 2 2 2 4 4 5
15 14 12 11 9 8 9 9 9 8 7 5 4 3 4 4 5 5 4 3 3 3 3 3 4 6 9 10 10 9 7 5 4 3 1 1 2 2 3 4 5 5
16 15 13 11 9 8 9 10 9 9 8 7 5 4 4 4 5 5 5 4 5 5 5 5 5 6 8 9 9 9 7 5 4 3 2 1 2 2 3 4 4 4
18 17 14 11 9 9 10 11 10 9 8 6 5 3 4 4 5 5 5 5 6 7 8 7 6 7 8 9 9 9 8 6 4 4 4 4 4 3 4 4 4 4
18 17 15 13 11 12 12 12 11 8 7 5 3 3 3 4 5 6 6 6 7 8 9 9 8 9 9 10 10 10 8 7 5 5 5 6 7 7 5 5 5 4
19 18 17 15 13 13 13 12 11 8 7 5 2 2 2 4 5 6 7 7 8 9 10 10 11 11 11 12 12 12 10 8 7 7 7 7 8 9 8 6 6 5
20 20 19 16 14 14 12 10 9 7 6 4 3 2 3 5 6 7 8 9 9 10 11 12 13 13 13 14 14 13 12 10 10 9 8 7 7 7 8 8 7 7
21 22 20 18 16 14 12 9 8 7 6 5 4 4 4 6 7 8 9 10 10 11 12 13 14 15 15 14 13 13 12 11 10 9 8 7 7 6 6 7 8 8
23 23 22 20 18 16 13 10 8 7 6 6 5 4 6 7 8 9 10 11 12 13 14 15 15 15 15 14 13 12 11 10 10 9 8 8 7 7 6 6 7 7
24 25 24 22 21 20 17 13 10 9 8 7 5 4 5 7 9 10 11 11 13 14 15 16 16 15 14 13 12 12 11 10 9 8 8 7 7 6 6 6 6 6
24 25 25 25 23 20 19 17 13 12 11 8 4 3 4 7 9 10 11 12 13 15 16 17 16 15 13 12 11 11 10 8 7 6 5 5 6 6 7 6 5 5
22 24 26 26 23 20 20 21 17 14 12 8 5 3 3 6 9 9 9 11 12 15 16 16 15 14 12 11 10 9 8 7 6 6 5 5 6 7 8 7 6 6
21 24 26 24 22 20 21 22 20 15 12 10 9 7 5 7 9 9 9 10 11 12 13 14 13 12 11 10 9 8 8 7 7 7 6 7 7 7 7 6 6 7
24 26 25 22 21 19 18 20 20 18 15 14 13 11 10 10 11 10 10 10 10 11 11 11 11 10 9 9 8 8 8 8 8 8 8 8 8 8 8 8 9 10
22 23 23 23 22 19 16 17 20 21 21 18 15 13 14 13 13 12 12 11 11 12 12 12 11 10 9 9 10 10 10 11 11 12 12 12 12 12 12 12 13 13
18 18 21 22 21 19 18 18 21 24 23 20 17 16 16 15 14 15 15 14 14 14 15 15 14 13 12 12 12 12 13 14 14 15 16 16 16 16 16 16 16 16
18 18 18 18 18 18 17 18 20 22 21 19 18 17 16 15 15 16 16 16 16 16 16 16 16 15 14 14 14 14 14 15 16 16 17 17 17 18 18 19 19 19
18 17 16 15 15 15 15 16 18 20 18 15 15 16 16 16 16 16 16 16 16 16 17 17 17 17 16 16 16 15 15 15 16 16 17 18 19 19 20 21 21 22
17 16 15 13 13 13 14 16 17 18 17 15 15 16 17 17 17 16 16 16 16 16 16 16 17 18 18 18 18 18 18 17 17 18 19 20 20 21 22 22 23 24
15 14 14 13 12 12 14 16 16 16 17 17 16 17 18 18 18 17 16 16 16 16 16 17 17 18 18 19 20 20 20 20 21 21 22 22 22 22 23 24 25 25
16 15 14 13 12 11 12 12 13 13 14 15 14 15 15 15 15 15 16 16 16 17 17 17 17 18 17 18 18 19 19 20 21 22 23 23 23 22 22 22 22 23
12 12 12 11 11 11 11 10 10 9 9 10 11 12 12 12 11 12 12 13 14 14 15 15 15 15 15 16 16 17 17 18 18 19 19 19 20 20 19 17 17 17
6 6 5 5 5 6 6 5 4 4 4 5 6 8 9 10 11 10 11 12 12 12 13 13 14 14 15 15 16 17 17 18 18 19 19 19 20 20 20 19 18 17
Wind_Direction
190 195 194 196 207 212 197 167 156 164 171 170 160 155 159 164 167 162 158 161 167 166 96 84 162 169 170 171 162 149 143 141 143 147 144 145 154 169 176 182 183 184
192 197 196 203 214 210 194 168 164 176 181 181 177 177 175 175 180 174 162 160 162 175 95 59 150 169 170 170 161 148 141 142 145 140 133 129 123 108 93 117 160 170
192 196 197 206 215 209 194 174 174 183 183 189 196 197 192 185 197 202 191 181 161 167 118 55 132 168 170 167 158 149 146 155 160 144 136 144 116 78 61 84 131 155
190 194 201 208 212 209 198 184 184 181 173 182 190 201 204 193 203 219 221 213 181 163 142 73 120 165 170 166 157 152 153 162 161 142 145 176 144 87 61 84 108 128
192 198 203 205 205 208 204 195 190 176 165 167 170 192 213 201 207 221 225 216 188 164 149 120 123 158 170 168 159 155 157 164 160 145 147 176 145 119 92 86 94 115
197 202 201 199 204 207 205 199 190 176 168 164 158 180 211 209 212 218 215 207 185 163 154 143 130 147 165 168 162 159 161 169 170 164 180 203 152 131 113 94 85 112
202 202 195 194 201 202 201 195 184 177 176 168 156 168 202 213 216 214 209 203 187 168 161 157 147 148 160 166 163 162 164 169 176 181 198 208 192 167 142 128 111 116
203 199 192 194 196 192 193 188 179 176 181 179 165 161 188 211 214 216 216 208 190 176 168 166 164 159 162 162 158 158 160 162 165 163 169 183 187 185 172 158 151 146
202 196 194 196 192 187 190 185 177 177 182 185 187 172 196 216 213 218 222 211 191 181 174 171 171 167 163 157 152 153 154 154 149 139 136 150 171 185 190 184 179 176
197 195 196 196 188 185 189 186 179 180 183 193 206 199 213 220 213 212 216 209 192 181 176 173 170 165 159 153 149 148 149 149 145 138 134 138 150 173 191 198 199 199
198 197 197 194 187 184 187 190 188 184 187 204 216 208 214 219 211 206 206 201 188 177 174 171 167 162 158 154 152 151 151 152 150 149 150 151 153 164 181 195 202 208
202 202 201 199 195 191 191 198 201 189 193 217 227 213 213 216 209 202 202 198 185 177 175 172 169 166 163 160 159 160 161 161 162 163 166 170 174 177 185 197 206 212
207 210 213 212 207 201 198 201 203 192 193 213 229 222 219 221 213 202 199 198 190 182 180 178 176 176 173 171 170 170 173 176 177 180 183 186 191 193 199 210 217 223
213 217 220 219 214 205 197 194 192 190 192 201 221 229 232 231 219 204 199 201 197 190 187 185 185 186 184 183 182 184 188 194 198 204 207 209 214 217 219 225 233 244
216 220 220 216 209 200 196 193 187 184 185 192 201 203 236 235 217 202 197 200 202 200 197 195 194 197 198 199 203 208 215 224 233 243 255 259 255 245 238 240 252 264
215 220 218 212 205 206 211 206 196 185 182 194 201 198 219 224 205 194 192 194 200 204 204 204 203 204 208 212 218 225 230 239 249 260 272 280 276 264 252 254 273 286
216 216 211 206 205 210 213 207 200 197 201 209 212 213 222 221 208 202 201 199 204 208 209 210 209 210 214 219 226 235 241 247 253 260 267 274 277 274 271 274 284 293
214 209 200 198 199 198 200 205 203 203 208 212 215 218 222 221 219 220 218 217 219 221 220 220 222 227 233 238 245 252 258 262 264 265 266 269 271 273 275 278 285 292
201 197 191 194 197 197 206 213 207 206 212 213 214 219 221 223 227 228 226 227 229 229 228 227 230 237 242 245 249 253 257 261 262 264 265 267 270 273 274 276 280 286
193 193 191 195 198 199 205 207 205 210 214 211 210 217 222 226 231 231 229 229 231 230 229 230 233 237 239 241 244 246 249 253 256 259 262 265 267 270 272 274 276 279
183 185 187 192 195 196 202 204 205 209 209 205 208 216 222 225 226 227 227 229 231 231 231 234 237 238 240 243 246 248 248 250 253 256 260 263 265 267 269 270 272 274
164 171 175 180 184 187 194 199 201 204 205 206 208 214 221 224 223 224 227 229 232 234 235 238 241 244 247 250 252 254 255 255 257 258 259 261 263 265 266 267 269 271
136 149 155 161 169 174 181 190 195 199 203 205 207 212 218 221 222 227 231 233 237 239 240 243 247 250 253 255 257 258 260 261 262 262 261 262 263 264 266 267 267 268
117 126 131 139 151 156 163 175 184 189 195 200 205 210 215 219 223 228 233 238 243 245 245 246 248 249 251 253 254 257 259 260 262 262 262 263 264 266 267 269 270 271
110 116 120 125 132 134 138 149 159 169 178 186 196 208 218 226 230 231 235 241 245 245 246 246 245 246 247 249 252 254 256 257 259 261 263 265 267 267 266 267 270 272
104 115 123 123 126 131 133 137 145 159 175 186 200 214 223 229 234 236 238 242 245 248 250 250 251 253 254 256 258 261 263 264 265 268 271 271 269 267 266 264 264 265
Height
1529 1531 1532 1534 1535 1536 1538 1539 1539 1540 1541 1543 1544 1545 1546 1547 1548 1548 1549 1549 1550 1551 1551 1552 1552 1553 1554 1555 1555 1556 1557 1557 1558 1558 1559 1559 1560 1560 1561 1561 1562 1562
1529 1531 1532 1533 1535 1536 1538 1539 1540 1541 1542 1543 1544 1545 1546 1547 1547 1548 1548 1549 1550 1550 1551 1551 1552 1552 1553 1554 1555 1556 1557 1558 1559 1559 1559 1560 1560 1561 1561 1562 1562 1562
1529 1530 1531 1533 1534 1536 1537 1538 1539 1541 1542 1543 1544 1545 1546 1547 1547 1548 1548 1549 1550 1550 1551 1551 1552 1552 1553 1554 1555 1557 1558 1559 1560 1560 1560 1561 1561 1562 1562 1562 1562 1563
1528 1530 1531 1533 1534 1535 1537 1538 1539 1541 1542 1543 1543 1544 1545 1546 1547 1548 1548 1549 1550 1550 1551 1551 1552 1552 1553 1555 1556 1557 1559 1560 1561 1561 1562 1562 1562 1563 1563 1563 1563 1563
1528 1529 1531 1533 1534 1535 1537 1538 1539 1541 1542 1543 1543 1544 1545 1546 1547 1548 1549 1549 1550 1550 1551 1551 1552 1552 1554 1555 1556 1558 1559 1560 1561 1562 1562 1563 1563 1564 1564 1564 1564 1565
1528 1530 1531 1533 1534 1535 1537 1538 1540 1541 1542 1543 1543 1544 1544 1545 1547 1548 1549 1549 1550 1550 1551 1552 1552 1553 1554 1555 1557 1558 1559 1561 1562 1562 1563 1563 1564 1564 1565 1565 1566 1566
1528 1530 1531 1533 1534 1535 1537 1538 1540 1541 1542 1543 1544 1544 1544 1545 1546 1548 1549 1550 1550 1550 1551 1552 1553 1553 1554 1556 1557 1558 1559 1561 1562 1562 1563 1564 1565 1565 1566 1566 1567 1568
1528 1530 1531 1532 1533 1534 1536 1537 1539 1541 1542 1543 1544 1544 1544 1545 1546 1548 1549 1550 1550 1551 1551 1552 1553 1554 1555 1556 1557 1558 1560 1561 1562 1562 1563 1564 1565 1566 1567 1567 1568 1569
1527 1529 1531 1532 1533 1534 1535 1537 1538 1540 1542 1543 1544 1544 1544 1545 1546 1548 1549 1550 1551 1551 1552 1552 1553 1554 1555 1556 1557 1559 1560 1561 1562 1563 1563 1564 1565 1566 1567 1568 1568 1569
1527 1529 1530 1531 1532 1534 1535 1536 1538 1540 1541 1543 1544 1544 1544 1545 1546 1547 1549 1550 1551 1551 1552 1553 1554 1555 1556 1557 1558 1559 1560 1561 1562 1563 1564 1565 1565 1566 1567 1568 1568 1569
1526 1528 1529 1530 1532 1533 1535 1536 1537 1539 1541 1543 1544 1544 1544 1545 1546 1547 1549 1550 1551 1552 1553 1553 1554 1556 1557 1558 1559 1560 1561 1562 1563 1564 1564 1565 1566 1566 1567 1567 1568 1569
1524 1526 1528 1529 1531 1532 1534 1535 1537 1539 1540 1542 1544 1544 1544 1545 1546 1548 1549 1550 1551 1552 1553 1554 1555 1556 1557 1558 1559 1560 1561 1562 1563 1564 1565 1565 1566 1567 1567 1568 1568 1569
1523 1525 1526 1528 1529 1530 1532 1534 1536 1538 1540 1542 1543 1543 1544 1545 1546 1548 1549 1550 1551 1552 1553 1554 1555 1556 1557 1558 1559 1560 1561 1562 1563 1564 1565 1566 1566 1567 1567 1568 1568 1568
1521 1524 1525 1526 1528 1529 1531 1532 1534 1536 1539 1542 1543 1543 1544 1545 1547 1548 1549 1550 1551 1552 1553 1554 1555 1556 1557 1558 1559 1560 1561 1562 1563 1564 1565 1566 1566 1567 1567 1568 1568 1568
1520 1522 1524 1525 1526 1528 1529 1529 1533 1536 1539 1541 1542 1542 1544 1545 1547 1548 1549 1550 1551 1552 1553 1554 1555 1556 1557 1558 1559 1560 1561 1562 1563 1564 1564 1565 1566 1566 1567 1567 1568 1568
1518 1520 1523 1524 1525 1527 1528 1530 1533 1536 1538 1540 1541 1542 1544 1546 1547 1548 1549 1550 1551 1552 1553 1554 1555 1556 1557 1557 1558 1559 1560 1561 1562 1563 1564 1564 1565 1565 1566 1566 1567 1567
1516 1519 1521 1523 1524 1526 1528 1531 1533 1535 1538 1540 1541 1543 1544 1545 1546 1547 1548 1550 1551 1552 1553 1554 1555 1555 1556 1557 1557 1558 1559 1560 1561 1561 1562 1563 1563 1564 1565 1565 1566 1566
1517 1518 1520 1522 1524 1526 1528 1530 1532 1535 1538 1540 1541 1543 1543 1545 1546 1547 1548 1549 1550 1551 1552 1553 1554 1554 1555 1556 1556 1557 1558 1558 1559 1560 1560 1561 1562 1562 1563 1563 1564 1564
1518 1519 1521 1523 1525 1526 1528 1530 1532 1534 1537 1539 1540 1542 1543 1544 1545 1545 1547 1548 1548 1549 1550 1551 1552 1553 1553 1554 1555 1555 1556 1557 1557 1558 1558 1559 1559 1560 1560 1561 1561 1562
1518 1520 1522 1523 1525 1527 1528 1530 1532 1534 1535 1537 1539 1541 1542 1543 1544 1544 1545 1546 1547 1548 1549 1549 1550 1550 1551 1552 1552 1553 1553 1554 1555 1555 1556 1556 1557 1558 1558 1558 1559 1559
1519 1520 1522 1524 1526 1527 1529 1530 1532 1533 1535 1536 1538 1540 1541 1542 1543 1543 1544 1545 1546 1547 1547 1548 1548 1548 1549 1549 1550 1550 1551 1552 1552 1553 1553 1554 1555 1555 1556 1556 1557 1557
1520 1521 1523 1526 1527 1528 1529 1530 1532 1533 1535 1536 1538 1539 1540 1541 1542 1542 1543 1543 1544 1545 1546 1547 1546 1547 1547 1547 1548 1548 1549 1549 1550 1550 1551 1551 1552 1553 1553 1554 1554 1555
1522 1523 1525 1527 1528 1529 1530 1530 1531 1533 1534 1536 1537 1538 1539 1540 1540 1541 1541 1542 1543 1544 1544 1545 1545 1545 1545 1545 1546 1546 1546 1547 1547 1547 1548 1549 1549 1550 1551 1551 1552 1552
1525 1526 1527 1529 1529 1530 1530 1531 1532 1533 1534 1535 1536 1537 1538 1538 1539 1539 1539 1540 1541 1541 1542 1543 1543 1543 1543 1544 1544 1544 1544 1545 1545 1545 1546 1546 1546 1547 1548 1548 1549 1549
1528 1529 1529 1530 1531 1531 1532 1532 1533 1533 1534 1535 1536 1537 1537 1538 1538 1538 1538 1538 1539 1540 1540 1541 1541 1541 1542 1542 1542 1542 1542 1543 1543 1543 1543 1543 1544 1544 1544 1545 1545 1546
1528 1529 1530 1531 1532 1532 1532 1533 1534 1534 1535 1535 1536 1537 1537 1537 1538 1538 1537 1538 1538 1538 1539 1539 1540 1540 1540 1541 1541 1541 1541 1541 1541 1540 1540 1541 1541 1541 1542 1542 1542 1542